RH
77 78 79 78 75 76 80 80 80 81 80 79 74 58 52 53 57 66 70 74 76 79 66 57 77 82 71 71 72 72 72 74 75 77 77 76 75 76 81 78 68 58 62 68 66 65 49 28 21 19 18 16
60 57 57 62 65 67 73 77 76 72 68 67 64 56 53 52 51 55 57 59 60 58 51 45 64 83 80 77 78 78 77 76 74 76 77 76 74 72 75 78 68 48 51 62 63 65 53 33 26 25 22 20
49 38 37 43 47 48 51 56 58 57 57 57 57 55 54 52 50 55 56 55 51 47 48 44 48 67 80 84 84 76 67 68 74 76 77 78 77 76 73 72 60 40 40 49 53 54 45 32 30 30 27 26
40 30 29 32 36 40 43 45 49 52 54 53 51 50 50 52 51 53 55 51 49 46 46 46 43 49 60 70 72 60 47 52 68 74 75 78 80 74 62 53 45 37 37 38 40 39 35 31 31 32 30 31
33 35 38 40 42 46 48 48 51 53 52 51 48 48 48 50 50 51 51 47 46 45 43 43 43 42 44 48 49 45 41 43 52 58 58 60 60 53 44 40 39 39 39 38 38 37 36 34 32 31 31 32
44 51 53 54 53 53 54 53 54 52 50 49 46 47 47 47 47 46 45 43 41 40 39 38 37 37 36 37 37 37 40 42 44 45 45 45 43 41 40 41 41 40 40 40 41 40 40 39 36 34 32 32
62 64 63 62 58 54 54 52 50 49 47 46 44 44 44 43 42 41 40 40 38 37 36 35 34 33 32 31 31 30 32 36 40 43 45 45 44 44 43 42 43 43 43 42 43 43 43 43 41 39 35 33
63 62 61 58 55 52 49 48 46 45 43 41 41 40 40 40 39 39 39 37 37 37 36 35 35 34 34 32 30 28 27 28 32 37 40 43 45 46 46 46 47 47 46 46 46 46 46 45 45 43 40 36
54 54 53 52 50 48 46 45 43 41 40 39 38 38 37 38 38 37 37 38 37 37 36 36 36 34 33 32 29 27 25 25 27 31 35 38 42 44 47 49 50 50 50 50 49 49 49 48 47 46 44 40
50 50 50 49 47 47 45 44 43 42 41 40 39 38 37 37 37 37 37 38 37 37 37 36 36 34 31 29 26 24 23 24 24 28 31 35 38 41 45 47 49 51 51 51 51 50 50 49 48 47 45 43
49 48 47 47 46 45 44 43 43 42 41 40 39 38 38 38 37 38 38 39 39 39 38 38 37 35 32 29 26 23 21 21 21 23 25 28 30 33 36 39 42 44 46 48 49 49 49 48 47 46 45 43
45 45 44 44 44 43 43 42 41 41 41 40 39 39 39 40 40 39 40 40 40 40 39 39 37 36 35 32 29 25 22 21 20 19 19 20 20 22 24 26 28 30 33 35 37 39 40 41 41 42 42 41
42 42 42 41 41 41 41 41 41 41 42 41 41 42 41 41 41 41 42 41 40 39 38 37 35 35 34 32 31 28 26 24 21 19 19 18 18 18 17 18 19 19 20 21 23 25 26 29 32 35 38 41
40 40 40 40 41 41 42 41 43 43 42 43 43 42 42 42 43 42 41 40 38 37 36 34 33 32 30 29 28 27 26 24 22 21 19 19 18 17 17 17 16 16 16 15 16 17 18 20 24 29 34 39
40 40 40 42 43 43 43 43 43 44 43 43 44 43 43 43 43 42 40 38 37 36 34 33 31 29 27 26 25 24 24 22 22 21 21 20 18 18 17 16 16 16 15 15 15 15 15 16 17 21 25 29
41 42 43 44 45 44 44 44 44 45 45 45 45 45 44 44 42 40 39 37 36 34 32 30 28 27 26 25 24 23 22 22 21 21 20 20 19 18 17 16 15 14 14 14 14 13 13 13 13 13 15 18
44 45 47 46 47 47 46 47 47 47 47 46 45 44 43 41 40 38 36 34 32 30 29 28 28 27 27 26 25 24 23 23 21 20 19 18 18 17 17 16 15 14 13 12 12 12 11 11 11 11 11 11
49 49 50 50 49 49 48 48 47 46 44 42 41 39 38 36 34 33 32 30 28 27 27 28 30 31 32 31 30 28 26 24 22 21 18 17 17 16 15 14 14 13 11 11 11 10 10 10 10 10 9 9
49 48 48 47 46 44 43 42 40 39 36 35 34 32 32 31 30 30 28 27 24 24 26 29 32 34 36 36 32 31 28 26 23 20 18 17 15 14 13 12 12 11 11 11 10 10 10 9 9 8 8 9
42 42 41 40 40 39 38 38 37 36 34 33 32 30 29 28 28 28 27 24 22 23 26 29 32 33 35 33 31 30 28 25 22 19 18 15 14 15 13 12 12 11 11 10 9 9 9 8 8 8 8 8
36 35 34 34 34 35 36 37 37 37 35 34 31 28 27 27 26 27 27 22 20 22 25 28 29 30 31 29 29 28 26 24 21 19 19 15 15 15 12 13 14 13 12 10 10 9 8 8 8 8 9 9
32 30 29 30 30 31 32 33 35 35 34 32 30 26 24 22 22 25 25 19 18 19 23 26 26 27 28 27 27 25 23 22 20 21 20 18 16 13 14 19 19 17 15 14 11 9 8 8 8 9 9 8
31 31 32 33 32 33 34 34 34 32 31 29 26 24 21 19 19 22 20 17 16 17 20 23 24 26 26 25 25 23 22 21 21 23 21 20 17 12 19 24 23 22 20 16 12 11 10 9 10 10 9 13
35 35 35 35 35 35 36 36 34 30 28 27 25 24 22 21 22 20 18 18 16 16 18 20 22 24 24 24 24 23 24 23 23 24 22 21 15 15 25 24 23 29 24 18 14 13 14 12 12 11 15 26
36 36 36 36 36 36 36 35 32 28 24 22 21 20 20 21 21 20 22 22 20 20 19 19 21 22 22 23 23 23 25 25 25 24 22 19 12 20 31 23 28 35 25 25 28 25 25 19 16 20 26 34
37 38 38 38 38 36 36 35 31 25 18 14 13 13 13 14 16 19 24 25 25 25 21 21 21 21 23 22 23 25 25 26 26 24 22 18 15 26 30 24 35 38 29 41 46 40 47 38 24 25 30 35
39 41 41 40 39 37 36 34 30 23 17 13 10 9 9 9 11 14 19 24 29 30 26 25 23 23 24 23 25 26 26 28 27 26 23 19 24 32 28 27 40 37 34 51 51 49 62 55 42 41 37 36
42 43 44 42 40 38 37 35 29 23 20 17 13 11 9 9 9 9 13 21 29 31 31 29 26 26 25 25 28 27 30 32 29 30 25 22 31 34 31 39 45 35 34 49 50 57 67 62 72 76 55 43
45 46 46 43 41 40 39 35 30 26 25 23 19 15 13 11 11 11 15 22 29 32 33 32 29 29 27 26 26 26 33 35 32 31 27 27 34 31 37 52 50 34 39 48 42 55 72 77 95 89 58 46
47 48 47 45 42 41 40 36 31 28 28 27 25 21 17 15 14 15 19 24 30 32 34 35 34 35 33 31 28 26 33 35 32 32 29 31 32 30 41 53 49 41 47 49 34 44 62 65 76 72 59 58
49 50 49 47 45 42 41 37 32 29 30 31 29 26 22 19 17 16 18 21 24 26 31 36 38 40 39 38 33 29 32 31 31 33 31 33 31 34 45 49 49 48 51 50 41 48 56 50 54 56 59 66
Wind_Speed
19 18 18 17 16 16 16 15 14 13 13 13 13 12 11 10 9 8 9 12 14 15 14 13 16 17 16 16 16 16 16 16 16 16 16 16 16 15 15 15 16 17 16 17 17 18 19 19 18 17 17 17
15 14 13 13 12 12 11 10 10 10 11 11 11 11 11 10 8 6 6 9 11 11 11 11 13 17 17 16 17 17 16 17 16 16 16 16 16 16 15 15 16 17 16 16 17 17 18 19 19 18 17 17
11 11 10 10 10 9 8 8 8 9 10 11 12 12 11 9 7 6 7 8 10 10 10 10 11 13 16 17 17 17 16 17 17 17 16 16 16 16 15 14 16 17 16 16 17 17 18 19 19 18 18 17
8 8 7 7 7 7 7 7 8 8 9 10 11 11 10 9 7 7 7 9 10 10 10 11 11 11 13 14 15 15 15 15 16 16 16 15 15 14 14 15 16 17 17 17 18 18 19 20 19 19 19 18
6 6 5 5 4 4 5 5 5 6 7 8 9 10 9 9 8 8 8 9 9 10 11 11 11 12 12 13 13 14 14 13 13 14 13 13 13 15 15 15 16 17 18 18 19 20 21 21 21 21 20 19
8 7 6 6 5 6 6 5 5 5 6 7 8 8 8 9 9 9 9 9 10 11 11 12 12 13 13 14 14 15 15 14 13 12 12 12 13 14 14 15 16 16 17 18 19 20 21 22 22 22 22 21
9 8 8 8 8 8 8 7 7 7 8 7 8 8 8 9 9 9 10 11 11 11 11 12 13 14 14 15 15 16 15 15 15 14 13 12 13 13 14 15 15 16 17 18 19 20 21 22 22 22 22 22
11 11 11 11 10 10 9 9 8 8 8 8 8 8 8 9 9 9 10 11 11 12 13 14 15 15 16 16 16 16 16 16 16 16 15 15 14 14 15 15 16 17 18 19 20 21 21 22 22 22 22 22
13 13 12 12 11 10 9 9 8 8 8 8 8 8 8 9 9 10 11 12 13 14 15 16 17 17 18 18 18 17 17 17 17 18 18 18 17 17 17 18 18 19 20 21 21 22 22 22 23 23 23 23
14 12 11 11 10 8 8 8 7 8 8 8 8 8 9 9 9 11 12 13 15 16 17 17 18 19 19 19 19 19 19 18 18 18 19 19 19 20 20 20 20 20 21 22 23 23 23 24 24 24 24 24
12 11 10 10 8 7 7 7 6 8 9 9 9 10 10 11 12 13 14 15 16 17 18 19 19 19 19 20 20 20 20 20 19 19 20 20 20 21 21 22 22 22 22 23 24 24 24 24 25 25 25 25
10 9 8 8 6 6 7 6 7 8 9 9 10 11 12 13 13 14 15 16 17 18 19 19 20 20 20 20 20 20 20 21 21 21 21 21 22 22 22 23 23 24 24 24 24 25 26 25 25 25 24 24
8 7 6 6 5 6 6 6 7 8 8 9 11 12 13 14 15 16 17 17 18 19 19 19 19 20 20 20 20 21 21 21 22 22 22 23 23 23 23 24 24 24 25 25 24 25 26 25 25 24 24 23
6 5 4 5 5 5 5 6 7 7 8 10 11 12 13 14 16 17 17 18 19 19 19 20 20 20 20 20 21 21 21 22 22 23 24 24 24 24 24 24 24 24 24 24 24 24 25 25 24 24 24 23
4 4 4 4 4 5 5 6 7 8 10 11 12 13 14 15 16 17 17 18 19 20 20 20 21 21 21 21 21 22 22 22 22 23 23 24 24 25 25 25 24 24 25 24 24 23 24 24 24 24 24 24
3 2 3 3 4 5 6 7 8 10 11 12 13 14 15 16 16 17 18 18 18 19 19 19 20 20 20 21 21 21 22 22 23 23 23 24 24 24 25 26 26 25 25 25 25 24 24 24 25 25 24 24
3 3 3 3 5 6 7 8 9 11 11 12 13 13 14 15 16 17 18 18 18 18 18 18 18 18 18 19 19 20 21 22 22 23 24 24 25 25 26 26 27 27 27 27 26 26 26 26 26 26 26 26
3 3 4 5 6 7 8 9 10 10 11 11 12 13 14 14 15 16 17 18 18 18 17 17 17 17 17 18 18 19 20 21 22 23 24 24 25 26 26 27 28 28 29 29 29 29 28 28 27 27 28 27
3 4 5 6 7 7 8 9 10 11 11 12 13 13 14 15 16 16 17 17 17 17 16 17 17 17 17 17 18 19 20 21 21 22 23 24 25 26 26 27 27 28 29 30 31 31 30 30 29 28 28 28
3 4 5 6 7 7 9 10 11 11 12 13 14 14 15 15 16 17 17 17 16 15 15 15 15 15 16 17 18 19 20 20 21 22 22 23 23 25 26 26 27 27 28 30 32 31 32 31 30 29 28 27
2 3 4 5 6 7 8 9 10 11 12 13 14 15 16 16 17 17 17 16 15 14 13 13 14 14 16 17 18 19 20 21 21 21 22 22 21 22 24 25 26 27 28 30 31 32 32 31 30 29 27 26
2 3 4 5 6 7 8 9 10 11 12 13 14 15 15 16 16 16 17 16 15 14 13 13 13 14 15 17 18 19 20 20 21 21 21 22 21 21 22 22 23 26 28 29 31 33 32 30 29 27 26 23
1 2 3 4 6 7 7 9 9 10 11 12 12 13 14 15 15 16 16 15 15 14 13 13 14 15 15 17 17 19 19 20 21 21 21 22 22 21 20 18 20 23 26 29 31 29 29 29 27 26 23 17
2 3 4 5 6 7 8 9 9 9 10 11 11 12 13 14 14 15 14 14 14 13 13 14 14 15 16 17 17 19 19 20 20 20 21 21 22 22 19 19 20 21 25 29 28 27 27 26 26 24 15 7
4 4 5 6 7 8 8 9 9 9 10 11 12 12 13 14 14 14 14 13 13 13 13 14 14 15 16 16 17 18 18 19 18 18 20 20 21 19 19 21 19 20 24 23 23 27 28 26 22 12 4 3
7 7 7 7 7 8 8 9 9 10 10 11 12 12 13 14 14 14 14 14 13 14 14 14 14 15 15 16 17 17 17 18 18 18 19 20 20 17 17 19 17 20 21 16 18 21 20 20 13 3 2 5
9 9 8 8 8 8 8 8 9 9 10 10 11 12 13 13 14 15 15 14 14 14 14 14 14 14 14 15 16 17 17 17 17 18 19 18 18 17 18 17 15 17 17 15 19 14 7 8 7 3 3 7
11 10 10 9 9 8 8 8 8 8 8 9 10 11 12 13 14 15 15 15 15 15 15 15 15 14 15 16 16 17 17 16 17 17 18 17 15 16 18 16 14 15 14 14 15 9 4 5 5 2 4 15
13 12 12 11 10 9 9 8 8 8 8 9 10 10 11 11 12 13 13 14 14 15 15 15 15 15 16 16 17 17 15 15 16 16 16 16 14 14 14 13 15 15 13 12 10 6 5 4 2 2 8 18
16 15 14 14 13 12 11 10 10 9 9 9 9 10 11 11 11 12 13 14 14 14 15 14 14 15 15 16 17 16 15 15 15 16 15 14 13 13 11 10 14 15 13 11 9 7 5 5 4 6 11 9
18 18 17 17 16 14 13 13 12 10 10 10 10 10 11 11 10 11 12 13 14 14 15 14 14 15 15 16 16 14 14 15 15 15 15 13 12 12 9 9 12 13 12 12 11 10 8 9 9 10 10 4
Wind_Direction
79 75 72 69 68 69 66 62 59 53 47 41 38 35 35 39 45 43 36 34 28 24 21 23 27 21 16 14 11 9 7 8 9 8 6 6 5 4 2 2 2 2 5 5 4 2 355 350 350 349 349 347
77 73 73 71 72 75 70 65 58 49 42 38 35 35 36 38 39 37 33 27 21 21 20 22 29 25 20 17 15 13 10 8 5 4 3 2 2 2 1 359 355 355 358 0 359 359 354 350 350 349 348 346
69 64 67 68 67 63 56 49 42 36 35 33 32 31 32 35 37 37 32 24 22 27 25 22 26 24 21 18 16 11 5 6 5 2 0 358 359 360 358 354 349 347 350 353 353 353 350 348 348 347 347 346
61 60 60 59 53 47 44 37 34 33 31 29 29 30 32 35 36 35 29 26 28 28 24 21 19 15 15 14 10 2 355 359 3 3 360 358 356 349 341 338 338 339 340 342 343 344 345 344 342 342 344 344
77 78 77 74 66 61 58 51 46 40 38 35 35 38 36 36 37 36 29 26 24 17 14 11 7 2 360 358 355 351 348 349 353 354 351 348 341 332 328 329 331 332 333 334 334 335 337 338 339 339 339 339
102 102 105 104 102 97 90 86 75 63 59 53 51 49 43 43 41 36 29 24 18 11 7 1 356 352 348 345 341 340 341 340 339 339 339 334 328 324 324 323 324 326 326 326 327 328 329 331 334 335 334 334
111 111 112 111 108 104 99 94 87 80 75 67 61 55 47 45 38 31 24 18 12 5 359 354 351 347 343 339 335 332 330 329 328 329 330 328 324 320 318 318 320 320 320 320 320 321 323 325 328 330 329 329
113 114 113 112 109 104 99 92 86 80 72 67 59 50 44 35 28 19 12 6 360 353 350 348 346 343 340 337 334 330 326 323 321 320 319 318 318 316 315 316 316 316 316 316 316 317 318 320 321 323 323 323
114 114 113 107 102 98 90 81 74 69 60 55 46 38 31 21 14 6 360 356 350 348 347 344 343 342 341 339 336 332 329 326 322 319 317 316 315 316 316 316 316 315 315 314 313 314 314 314 315 316 317 316
115 114 110 101 95 88 77 65 55 49 39 32 24 16 10 0 356 353 351 349 347 347 345 344 343 343 342 341 340 337 335 331 328 325 322 320 318 316 315 315 314 313 313 313 311 311 311 311 311 311 311 311
114 107 101 94 87 76 63 48 33 29 20 13 5 358 353 348 347 345 345 344 344 345 344 344 343 344 343 341 341 340 338 335 333 330 327 324 321 318 316 314 313 312 311 310 310 309 308 308 308 308 308 307
106 96 90 83 71 59 48 30 18 17 9 0 353 350 347 345 344 342 342 341 341 342 341 341 341 341 340 340 339 338 338 335 333 333 331 328 324 322 319 317 315 313 312 311 311 309 308 308 307 305 304 303
96 88 80 68 53 43 34 17 14 10 357 352 348 346 344 342 342 340 341 341 341 341 339 339 339 338 337 337 336 334 335 334 333 333 332 331 328 325 323 321 319 316 314 313 312 311 309 308 306 304 302 299
89 79 65 51 41 33 22 13 10 359 350 349 345 343 343 341 341 341 342 342 341 340 339 339 337 337 337 337 335 334 334 334 333 332 331 331 329 327 325 323 322 319 316 313 313 312 309 308 306 304 302 299
83 71 52 42 33 19 10 7 359 351 348 346 344 344 343 341 341 341 341 340 339 339 338 338 337 337 336 335 335 334 333 333 332 330 330 329 328 327 325 324 322 320 317 314 313 311 309 308 306 304 303 300
87 66 45 35 17 7 4 0 352 348 348 345 345 344 341 341 340 340 339 339 338 338 337 337 336 336 335 335 334 334 333 332 330 328 327 326 325 324 323 321 321 320 318 315 313 311 309 308 305 305 304 301
85 60 41 25 6 3 357 351 346 344 344 344 342 339 338 337 337 337 338 338 339 340 339 338 338 336 336 335 334 334 332 331 330 328 326 325 324 323 323 321 320 320 318 317 314 312 310 308 307 306 305 303
61 40 22 10 358 354 347 342 341 340 339 338 334 333 334 334 334 336 336 336 338 339 339 340 341 340 339 338 336 335 334 333 332 331 330 329 327 325 325 324 323 322 319 318 316 314 312 310 308 308 306 305
25 15 3 358 353 350 347 345 343 341 339 336 334 333 332 333 334 334 335 336 336 337 337 338 341 342 342 341 339 338 337 336 335 334 334 334 333 329 328 327 325 324 321 319 317 315 314 312 312 310 308 307
1 360 356 353 349 347 345 342 339 338 337 334 333 332 332 332 333 333 335 336 335 336 336 337 339 341 340 339 339 340 339 339 338 338 337 337 339 334 332 331 328 327 324 320 317 316 315 315 315 312 310 310
350 350 351 348 344 341 336 334 333 332 330 330 330 330 331 331 332 333 335 336 336 336 336 337 337 337 337 336 337 338 340 342 343 343 340 340 342 340 337 335 332 330 327 323 318 316 315 316 315 313 313 313
333 344 350 350 348 342 338 336 333 330 327 326 327 326 326 326 327 329 331 333 334 335 336 335 334 334 334 334 335 337 339 341 343 345 344 343 343 343 340 338 337 334 330 326 321 318 317 316 314 313 315 314
330 351 357 355 354 349 345 343 338 333 328 326 325 322 321 321 320 322 325 328 329 331 332 332 333 334 334 335 335 337 339 341 344 346 345 345 344 343 342 341 341 337 333 328 323 320 318 316 315 315 316 312
312 332 340 343 347 345 344 345 343 339 332 329 326 323 321 319 319 320 323 326 327 327 327 328 330 331 333 336 336 339 343 344 346 346 344 345 344 344 342 342 345 343 338 331 325 324 320 317 319 319 315 304
283 299 315 323 330 334 338 339 340 339 333 330 327 323 320 318 318 320 324 329 330 329 327 326 326 328 330 334 336 340 343 344 345 345 343 343 343 346 343 343 350 348 345 341 334 331 324 324 329 326 316 294
272 284 294 305 313 321 327 327 329 331 330 329 327 322 318 316 318 320 325 329 329 330 330 327 328 330 331 333 335 336 339 340 342 342 343 344 345 347 343 344 350 350 354 352 337 330 321 328 344 348 300 279
266 275 281 289 296 303 310 311 315 321 325 328 327 323 317 315 316 317 320 323 324 327 330 329 330 331 330 332 334 334 336 338 340 342 344 348 347 345 343 345 348 351 1 352 336 332 311 327 347 324 320 301
259 265 270 275 280 286 292 294 299 308 318 324 326 324 320 316 314 313 313 314 316 320 324 326 327 328 328 330 332 334 334 335 339 340 342 347 347 345 344 344 341 346 359 355 348 347 307 318 332 303 350 329
254 257 261 265 268 272 276 278 282 293 307 317 322 325 324 319 313 309 307 305 308 312 316 319 320 321 323 325 328 331 330 331 334 335 339 343 341 343 346 339 333 339 351 354 356 2 328 325 336 279 333 331
250 253 255 257 259 260 262 265 270 280 297 309 317 322 325 323 314 306 303 301 303 306 310 313 313 315 318 320 324 326 322 322 328 330 335 339 334 338 343 335 330 335 345 337 334 353 333 301 297 299 328 335
246 249 251 253 256 259 258 261 267 276 289 300 308 315 320 320 313 305 302 301 301 303 306 308 308 310 314 316 320 321 315 317 323 325 329 332 330 333 334 332 329 329 335 329 324 335 319 302 302 303 317 319